LGX74P LIRN-LIMG

Flight info

Callsign LGX74P
Flight time 1h 2m
Altitude 34000
Route ALAXI DCT INSOX DCT PEMAR DCT TIBER DCT ROSKI DCT KARDU DCT UPDIN DCT KONER L50 UNITA
Aircraft RJ1H/M-SDFGIRWY/LB1

Departure

Time 2026-05-05 16:36
Airport Naples International Airport (LIRN)

Arrival

Time 2026-05-05 17:38
Airport Riviera Villanova d'Albenga International Airport (LIMG)
Time Latitude Longitude Altitude Speed Heading
2026-05-05 16:34 40.88852 14.30000 245 ft 24 kts 52°
2026-05-05 16:34 40.88955 14.30178 238 ft 25 kts 52°
2026-05-05 16:34 40.89056 14.30351 231 ft 18 kts 52°
2026-05-05 16:35 40.89154 14.30446 226 ft 19 kts 349°
2026-05-05 16:35 40.89184 14.30315 230 ft 21 kts 236°
2026-05-05 16:35 40.88953 14.29825 246 ft 105 kts 238°
2026-05-05 16:35 40.88452 14.28745 370 ft 162 kts 240°
2026-05-05 16:36 40.87876 14.27447 1248 ft 155 kts 241°
2026-05-05 16:36 40.87490 14.26165 2261 ft 149 kts 249°
2026-05-05 16:36 40.87156 14.24856 3070 ft 152 kts 250°
2026-05-05 16:36 40.86833 14.23529 3603 ft 155 kts 250°
2026-05-05 16:37 40.86492 14.22114 3948 ft 173 kts 251°
2026-05-05 16:37 40.86105 14.20505 4340 ft 191 kts 252°
2026-05-05 16:37 40.85812 14.18804 5049 ft 197 kts 274°
2026-05-05 16:37 40.86408 14.17139 5544 ft 215 kts 317°
2026-05-05 16:38 40.87714 14.16074 6116 ft 226 kts 329°
2026-05-05 16:38 40.89114 14.15047 6681 ft 236 kts 328°
2026-05-05 16:38 40.90588 14.13935 7091 ft 252 kts 327°
2026-05-05 16:38 40.92132 14.12721 7504 ft 265 kts 326°
2026-05-05 16:39 40.93844 14.11686 7906 ft 280 kts 347°
2026-05-05 16:39 40.95808 14.11492 8410 ft 286 kts 354°
2026-05-05 16:39 40.97799 14.11319 8994 ft 288 kts 353°
2026-05-05 16:39 40.99806 14.11116 9639 ft 291 kts 353°
2026-05-05 16:40 41.01147 14.10984 10114 ft 292 kts 353°
2026-05-05 16:40 41.03180 14.10767 10844 ft 294 kts 352°
2026-05-05 16:40 41.05227 14.10506 11595 ft 297 kts 351°
2026-05-05 16:40 41.07294 14.10225 12345 ft 300 kts 351°
2026-05-05 16:41 41.09382 14.09927 13111 ft 303 kts 351°
2026-05-05 16:41 41.11506 14.09615 13688 ft 314 kts 351°
2026-05-05 16:41 41.13736 14.09278 13984 ft 330 kts 351°
2026-05-05 16:41 41.16066 14.08933 14194 ft 343 kts 352°
2026-05-05 16:42 41.18455 14.08578 14554 ft 346 kts 347°
2026-05-05 16:42 41.20654 14.07386 14955 ft 342 kts 322°
2026-05-05 16:42 41.22504 14.05406 15359 ft 342 kts 317°
2026-05-05 16:42 41.24314 14.03344 15797 ft 344 kts 316°
2026-05-05 16:43 41.26115 14.01238 16224 ft 345 kts 316°
2026-05-05 16:43 41.27914 13.99105 16647 ft 347 kts 316°
2026-05-05 16:43 41.29718 13.96971 17082 ft 347 kts 314°
2026-05-05 16:43 41.31433 13.94697 17484 ft 349 kts 311°
2026-05-05 16:44 41.33092 13.92335 17894 ft 350 kts 310°
2026-05-05 16:44 41.34741 13.89940 18305 ft 352 kts 310°
2026-05-05 16:44 41.36404 13.87542 18662 ft 354 kts 310°
2026-05-05 16:44 41.38074 13.85127 19016 ft 355 kts 310°
2026-05-05 16:45 41.39763 13.82707 19343 ft 358 kts 310°
2026-05-05 16:45 41.41465 13.80273 19683 ft 359 kts 310°
2026-05-05 16:45 41.43189 13.77852 20019 ft 361 kts 310°
2026-05-05 16:45 41.44926 13.75417 20358 ft 363 kts 310°
2026-05-05 16:46 41.46655 13.72951 20693 ft 365 kts 310°
2026-05-05 16:46 41.48398 13.70483 21022 ft 367 kts 311°
2026-05-05 16:46 41.50157 13.68007 21346 ft 368 kts 310°
2026-05-05 16:46 41.51908 13.65498 21668 ft 370 kts 310°
2026-05-05 16:47 41.53680 13.62990 21982 ft 372 kts 311°
2026-05-05 16:47 41.55460 13.60472 22297 ft 374 kts 310°
2026-05-05 16:47 41.57236 13.57924 22604 ft 376 kts 310°
2026-05-05 16:47 41.59006 13.55412 22897 ft 377 kts 311°
2026-05-05 16:48 41.60811 13.52852 23212 ft 379 kts 311°
2026-05-05 16:48 41.62612 13.50270 23509 ft 381 kts 310°
2026-05-05 16:48 41.64419 13.47656 23741 ft 384 kts 310°
2026-05-05 16:48 41.66243 13.45047 24015 ft 385 kts 310°
2026-05-05 16:49 41.68066 13.42422 24300 ft 385 kts 310°
2026-05-05 16:49 41.69883 13.39790 24575 ft 386 kts 310°
2026-05-05 16:49 41.71710 13.37146 24824 ft 387 kts 310°
2026-05-05 16:49 41.73536 13.34505 25161 ft 386 kts 310°
2026-05-05 16:50 41.75361 13.31875 25492 ft 385 kts 310°
2026-05-05 16:50 41.77180 13.29263 25838 ft 382 kts 310°
2026-05-05 16:50 41.78994 13.26670 26206 ft 380 kts 310°
2026-05-05 16:50 41.80799 13.24093 26557 ft 378 kts 309°
2026-05-05 16:51 41.82583 13.21508 26911 ft 376 kts 309°
2026-05-05 16:51 41.84353 13.18935 27257 ft 374 kts 309°
2026-05-05 16:51 41.86120 13.16371 27616 ft 372 kts 309°
2026-05-05 16:51 41.87880 13.13830 27957 ft 371 kts 309°
2026-05-05 16:52 41.89632 13.11300 28281 ft 369 kts 308°
2026-05-05 16:52 41.91372 13.08766 28603 ft 368 kts 308°
2026-05-05 16:52 41.93101 13.06244 28930 ft 366 kts 308°
2026-05-05 16:52 41.94821 13.03738 29252 ft 364 kts 308°
2026-05-05 16:53 41.96536 13.01244 29539 ft 362 kts 308°
2026-05-05 16:53 41.98238 12.98753 29759 ft 361 kts 308°
2026-05-05 16:53 41.99933 12.96267 29989 ft 360 kts 307°
2026-05-05 16:53 42.01619 12.93781 30256 ft 359 kts 307°
2026-05-05 16:54 42.03293 12.91302 30498 ft 358 kts 307°
2026-05-05 16:54 42.04973 12.88848 30767 ft 355 kts 307°
2026-05-05 16:54 42.06650 12.86398 30931 ft 355 kts 307°
2026-05-05 16:54 42.08321 12.83948 31131 ft 356 kts 307°
2026-05-05 16:55 42.09988 12.81493 31348 ft 355 kts 307°
2026-05-05 16:55 42.11653 12.79043 31602 ft 354 kts 307°
2026-05-05 16:55 42.13318 12.76599 31858 ft 354 kts 306°
2026-05-05 16:55 42.14992 12.74173 32075 ft 353 kts 307°
2026-05-05 16:56 42.16647 12.71781 32277 ft 353 kts 306°
2026-05-05 16:56 42.18306 12.69352 32490 ft 352 kts 306°
2026-05-05 16:56 42.19958 12.66925 32714 ft 351 kts 306°
2026-05-05 16:56 42.21610 12.64500 32923 ft 350 kts 306°
2026-05-05 16:57 42.23257 12.62084 33130 ft 350 kts 306°
2026-05-05 16:57 42.24696 12.59499 33318 ft 341 kts 294°
2026-05-05 16:57 42.25768 12.56668 33505 ft 337 kts 290°
2026-05-05 16:57 42.26707 12.53776 33709 ft 336 kts 288°
2026-05-05 16:58 42.27576 12.50856 33890 ft 334 kts 287°
2026-05-05 16:58 42.28410 12.47937 34001 ft 332 kts 287°
2026-05-05 16:58 42.30072 12.42187 34023 ft 328 kts 287°
2026-05-05 16:59 42.31748 12.36462 34028 ft 327 kts 287°
2026-05-05 16:59 42.33450 12.30723 34040 ft 332 kts 287°
2026-05-05 17:00 42.35181 12.24843 34048 ft 340 kts 287°
2026-05-05 17:00 42.36948 12.18824 34058 ft 349 kts 287°
2026-05-05 17:01 42.38754 12.12653 34074 ft 356 kts 287°
2026-05-05 17:01 42.40583 12.06367 34066 ft 361 kts 287°
2026-05-05 17:02 42.42435 12.00024 34061 ft 364 kts 287°
2026-05-05 17:02 42.44300 11.93696 34051 ft 364 kts 287°
2026-05-05 17:03 42.46181 11.87319 34044 ft 365 kts 287°
2026-05-05 17:03 42.48042 11.80910 34042 ft 366 kts 287°
2026-05-05 17:04 42.49900 11.74487 34039 ft 366 kts 287°
2026-05-05 17:04 42.51753 11.68062 34028 ft 366 kts 286°
2026-05-05 17:05 42.53598 11.61617 34031 ft 367 kts 286°
2026-05-05 17:05 42.55428 11.55160 34023 ft 367 kts 286°
2026-05-05 17:06 42.57275 11.48718 34021 ft 366 kts 286°
2026-05-05 17:06 42.59115 11.42269 34016 ft 367 kts 286°
2026-05-05 17:07 42.60951 11.35806 34015 ft 367 kts 285°
2026-05-05 17:07 42.62791 11.29333 33995 ft 367 kts 285°
2026-05-05 17:08 42.64646 11.22842 33983 ft 370 kts 285°
2026-05-05 17:08 42.66513 11.16332 33997 ft 370 kts 285°
2026-05-05 17:09 42.68378 11.09799 33991 ft 371 kts 285°
2026-05-05 17:09 42.70301 11.03294 33990 ft 373 kts 291°
2026-05-05 17:10 42.73059 10.97312 33983 ft 378 kts 298°
2026-05-05 17:10 42.76191 10.91543 33995 ft 380 kts 300°
2026-05-05 17:11 42.79355 10.85790 33977 ft 380 kts 299°
2026-05-05 17:11 42.82476 10.79980 34005 ft 380 kts 299°
2026-05-05 17:12 42.85577 10.74153 33996 ft 379 kts 298°
2026-05-05 17:12 42.88668 10.68331 33978 ft 379 kts 298°
2026-05-05 17:13 42.91761 10.62496 33976 ft 379 kts 298°
2026-05-05 17:13 42.94851 10.56657 33989 ft 380 kts 298°
2026-05-05 17:14 42.97993 10.50839 33975 ft 383 kts 301°
2026-05-05 17:14 43.01513 10.45327 33971 ft 386 kts 304°
2026-05-05 17:15 43.05172 10.39939 33970 ft 387 kts 304°
2026-05-05 17:15 43.08804 10.34521 33971 ft 386 kts 304°
2026-05-05 17:16 43.12385 10.29052 33973 ft 386 kts 304°
2026-05-05 17:16 43.15982 10.23595 33963 ft 386 kts 304°
2026-05-05 17:17 43.19575 10.18116 33985 ft 388 kts 303°
2026-05-05 17:17 43.23183 10.12610 33965 ft 389 kts 303°
2026-05-05 17:18 43.26797 10.07090 33966 ft 388 kts 303°
2026-05-05 17:18 43.30403 10.01568 33964 ft 388 kts 303°
2026-05-05 17:19 43.33970 9.96072 33958 ft 388 kts 303°
2026-05-05 17:19 43.37429 9.90359 33260 ft 389 kts 296°
2026-05-05 17:20 43.38811 9.87224 32599 ft 378 kts 291°
2026-05-05 17:20 43.39996 9.84038 31952 ft 370 kts 288°
2026-05-05 17:20 43.41076 9.80860 31364 ft 365 kts 287°
2026-05-05 17:20 43.42116 9.77676 30746 ft 365 kts 287°
2026-05-05 17:21 43.43149 9.74486 30146 ft 366 kts 287°
2026-05-05 17:21 43.44196 9.71277 29477 ft 369 kts 287°
2026-05-05 17:21 43.45262 9.68043 28786 ft 373 kts 288°
2026-05-05 17:22 43.47471 9.61489 27452 ft 381 kts 288°
2026-05-05 17:22 43.48590 9.58165 26835 ft 385 kts 289°
2026-05-05 17:22 43.49923 9.54913 26205 ft 396 kts 297°
2026-05-05 17:22 43.51643 9.51893 25597 ft 406 kts 306°
2026-05-05 17:23 43.53665 9.49122 24997 ft 414 kts 311°
2026-05-05 17:23 43.55857 9.46504 24420 ft 420 kts 314°
2026-05-05 17:23 43.58136 9.43949 23866 ft 425 kts 315°
2026-05-05 17:23 43.60357 9.41275 23247 ft 419 kts 305°
2026-05-05 17:24 43.61888 9.38006 22582 ft 397 kts 292°
2026-05-05 17:24 43.63163 9.34673 21923 ft 388 kts 292°
2026-05-05 17:24 43.64448 9.31446 21273 ft 381 kts 294°
2026-05-05 17:24 43.65765 9.28283 20644 ft 379 kts 295°
2026-05-05 17:25 43.67117 9.25167 20019 ft 377 kts 296°
2026-05-05 17:25 43.67559 9.24167 19825 ft 376 kts 296°
2026-05-05 17:25 43.69875 9.19054 18815 ft 373 kts 297°
2026-05-05 17:25 43.71258 9.16045 18225 ft 369 kts 297°
2026-05-05 17:26 43.72612 9.13103 17564 ft 365 kts 297°
2026-05-05 17:26 43.73943 9.10147 16910 ft 359 kts 296°
2026-05-05 17:26 43.75248 9.07227 16276 ft 355 kts 296°
2026-05-05 17:26 43.76542 9.04339 15645 ft 351 kts 297°
2026-05-05 17:27 43.77834 9.01504 15028 ft 346 kts 297°
2026-05-05 17:27 43.79093 8.98689 14423 ft 342 kts 296°
2026-05-05 17:27 43.80334 8.95903 13832 ft 338 kts 296°
2026-05-05 17:27 43.81567 8.93151 13173 ft 335 kts 297°
2026-05-05 17:28 43.82802 8.90428 12517 ft 333 kts 297°
2026-05-05 17:28 43.84025 8.87716 11901 ft 330 kts 297°
2026-05-05 17:28 43.85232 8.85026 11441 ft 328 kts 297°
2026-05-05 17:28 43.86427 8.82332 10991 ft 327 kts 297°
2026-05-05 17:29 43.87218 8.80554 10698 ft 326 kts 298°
2026-05-05 17:29 43.88416 8.77892 10264 ft 325 kts 298°
2026-05-05 17:29 43.89615 8.75212 9835 ft 329 kts 298°
2026-05-05 17:29 43.90819 8.72529 9360 ft 327 kts 299°
2026-05-05 17:30 43.92037 8.69828 8892 ft 325 kts 299°
2026-05-05 17:30 43.93226 8.67166 8427 ft 323 kts 298°
2026-05-05 17:30 43.94393 8.64518 7970 ft 320 kts 298°
2026-05-05 17:30 43.95540 8.61929 7507 ft 309 kts 298°
2026-05-05 17:31 43.96637 8.59462 7069 ft 300 kts 298°
2026-05-05 17:31 43.97724 8.57035 6623 ft 292 kts 298°
2026-05-05 17:31 43.98789 8.54674 6178 ft 286 kts 298°
2026-05-05 17:31 43.99816 8.52358 5782 ft 278 kts 297°
2026-05-05 17:32 44.00814 8.50087 5397 ft 274 kts 298°
2026-05-05 17:32 44.01816 8.47843 5022 ft 273 kts 298°
2026-05-05 17:32 44.02810 8.45612 4644 ft 270 kts 298°
2026-05-05 17:32 44.03790 8.43413 4274 ft 265 kts 298°
2026-05-05 17:33 44.04747 8.41227 3738 ft 267 kts 296°
2026-05-05 17:33 44.05254 8.38873 3561 ft 250 kts 267°
2026-05-05 17:33 44.05135 8.36472 3291 ft 249 kts 268°
2026-05-05 17:33 44.05217 8.34145 2993 ft 223 kts 270°
2026-05-05 17:34 44.05187 8.32138 2676 ft 194 kts 266°
2026-05-05 17:34 44.05152 8.30385 2397 ft 174 kts 267°
2026-05-05 17:34 44.05125 8.28745 2203 ft 165 kts 268°
2026-05-05 17:34 44.05096 8.27217 1967 ft 151 kts 269°
2026-05-05 17:35 44.05072 8.25815 1723 ft 138 kts 271°
2026-05-05 17:35 44.05062 8.24558 1517 ft 125 kts 271°
2026-05-05 17:35 44.05054 8.23358 1330 ft 125 kts 271°
2026-05-05 17:35 44.05049 8.22153 1151 ft 124 kts 271°
2026-05-05 17:36 44.04997 8.20966 996 ft 122 kts 264°
2026-05-05 17:36 44.04891 8.19808 888 ft 119 kts 265°
2026-05-05 17:36 44.04865 8.18653 776 ft 121 kts 271°
2026-05-05 17:36 44.04886 8.17502 709 ft 118 kts 273°
2026-05-05 17:37 44.04916 8.16369 604 ft 119 kts 275°
2026-05-05 17:37 44.04968 8.15196 425 ft 124 kts 272°
2026-05-05 17:37 44.05008 8.14024 224 ft 118 kts 275°
2026-05-05 17:37 44.05053 8.12967 159 ft 100 kts 274°
2026-05-05 17:38 44.05078 8.12197 154 ft 48 kts 274°
2026-05-05 17:38 44.05087 8.11955 154 ft 19 kts 261°
2026-05-05 17:38 44.04990 8.11868 156 ft 16 kts 191°
2026-05-05 17:38 44.04901 8.11902 159 ft 13 kts 136°
2026-05-05 17:39 44.04843 8.11987 159 ft 12 kts 135°
2026-05-05 17:39 44.04787 8.12066 159 ft 11 kts 135°
2026-05-05 17:39 44.04732 8.12143 159 ft 12 kts 134°
2026-05-05 17:39 44.04675 8.12224 159 ft 12 kts 134°
2026-05-05 17:40 44.04611 8.12325 157 ft 15 kts 114°
2026-05-05 17:40 44.04570 8.12481 149 ft 19 kts 96°
2026-05-05 17:40 44.04577 8.12582 144 ft 0 kts 125°